[[{"header":{"parameterUnit":"m.s-1","parameterCategory":1,"la1":30.2991,"la2":30.254,"lo1":-89.0895,"lo2":-89.0444,"dy":0.0017,"dx":0.0017,"nx":28,"ny":28,"refTime":"2024-05-28T09:00:00:Z","depth":0,"parameterNumber":2,"parameterNumberName":"U-component_of_WINDS"},"data":[0,0,0,0,0,0,0,0,0,0,0,0,0,0,0,0,0,0,0,0,0,0,0,0,0,0,0,0,0,0,0,0,0,0,0,0,0,0,0,0,0,0,0,0,0,0,0,0,0,0,0,0,0,0,0,0,0,0,-1.2419,-1.2418,0,-1.2382,-1.2382,-1.2381,-1.2348,-1.2347,-1.2347,-1.2347,-1.2308,-1.2308,-1.2307,0,0,0,0,0,0,0,0,0,0,0,0,0,-1.2459,-1.2459,-1.2419,-1.2418,-1.2418,-1.2382,-1.2382,-1.2381,-1.2348,-1.2347,-1.2347,-1.2346,-1.2309,-1.2308,-1.2307,0,0,0,0,0,0,0,0,0,0,0,0,0,-1.2434,-1.2458,-1.2419,-1.2397,-1.2394,-1.2382,-1.2382,-1.2381,-1.2348,-1.2347,-1.2347,-1.2346,-1.2309,-1.2308,-1.2307,-1.2313,0,0,-1.2304,-1.2304,0,0,0,0,0,0,0,0,-1.2435,-1.2433,-1.24,-1.2398,-1.2396,-1.2369,-1.2382,-1.2358,-1.2348,-1.2366,-1.2347,-1.2346,-1.2329,-1.2326,-1.2321,-1.2312,-1.231,-1.2304,-1.2304,-1.2303,-1.2303,0,0,0,0,0,0,0,-1.2437,-1.2434,-1.2404,-1.24,-1.2397,-1.2389,-1.2384,-1.2377,-1.2351,-1.2364,-1.2362,-1.2358,-1.2328,-1.2322,-1.232,-1.2309,-1.2304,-1.2303,-1.2303,-1.2302,-1.2304,-1.2305,0,0,0,0,0,0,-1.2442,-1.2436,-1.2405,-1.2403,-1.2414,-1.2389,-1.2384,-1.2378,-1.2351,-1.2346,-1.2358,-1.2356,-1.2324,-1.2321,-1.2318,-1.2324,-1.2303,-1.2302,-1.2302,-1.2304,-1.2305,-1.2305,0,0,0,0,0,0,-1.2443,-1.244,-1.2407,-1.2419,-1.2414,-1.2388,-1.2382,-1.2378,-1.2372,-1.2347,-1.2342,-1.2357,-1.2323,-1.232,-1.2315,-1.2323,-1.2302,-1.2301,-1.2303,-1.2304,-1.2305,-1.2337,0,0,0,0,0,0,-1.2445,-1.2441,-1.2443,-1.2419,-1.2413,-1.2404,-1.2383,-1.2377,-1.237,-1.2368,-1.2345,-1.234,-1.2322,-1.2317,-1.2314,-1.2321,-1.23,-1.2302,-1.2303,-1.2305,-1.2335,-1.2338,-1.2342,0,0,0,0,0,-1.2446,-1.2453,-1.2443,-1.2439,-1.2415,-1.2405,-1.2402,-1.2381,-1.2371,-1.2373,-1.2357,-1.2341,-1.2322,-1.2317,-1.2313,-1.232,-1.2302,-1.2303,-1.2304,-1.2333,-1.2338,-1.2342,0,0,0,0,0,0,-1.2477,-1.2449,-1.2438,-1.2437,-1.2424,-1.2399,-1.2401,-1.2387,-1.2376,-1.2373,-1.2348,-1.2344,-1.2342,-1.233,-1.2325,-1.2325,-1.231,-1.2311,-1.2333,-1.2337,-1.234,-1.2343,-1.2299,0,0,0,0,0,-1.2484,-1.2478,-1.2454,-1.2455,-1.2449,-1.2426,-1.2421,-1.2407,-1.2392,-1.2386,-1.2369,-1.2355,-1.2346,-1.2341,-1.2331,-1.2333,-1.2328,-1.2336,-1.234,-1.2342,-1.2344,-1.2344,-1.2348,-1.231,-1.231,-1.231,0,0,-1.2498,-1.2482,-1.2479,-1.2461,-1.2449,-1.2443,-1.2422,-1.2416,-1.2412,-1.2385,-1.238,-1.2367,-1.235,-1.2349,-1.2348,-1.2339,-1.2353,-1.2344,-1.2347,-1.2346,-1.2346,-1.235,-1.2353,-1.2311,-1.2311,-1.231,0,0,-1.2521,-1.2508,-1.2508,-1.2496,-1.2479,-1.2464,-1.2464,-1.2442,-1.2433,-1.2427,-1.2407,-1.2401,-1.2386,-1.2375,-1.2367,-1.2387,-1.2372,-1.2384,-1.2403,-1.2404,-1.2407,-1.2409,-1.2417,-1.242,-1.2386,-1.2386,-1.2386,0,-1.254,-1.2531,-1.251,-1.2506,-1.2499,-1.2474,-1.2474,-1.2464,-1.2444,-1.244,-1.2431,-1.2412,-1.2399,-1.2395,-1.24,-1.2394,-1.2394,-1.2387,-1.2408,-1.241,-1.2412,-1.2419,-1.2422,-1.2387,-1.2387,-1.2387,-1.2387,0,-1.2556,-1.255,-1.2552,-1.2534,-1.2527,-1.2525,-1.2504,-1.2499,-1.2486,-1.2472,-1.2467,-1.245,-1.2437,-1.2435,-1.2422,-1.243,-1.2425,-1.2413,-1.2397,-1.2418,-1.2424,-1.2426,-1.239,-1.2389,-1.2389,-1.2388,0,0,-1.2596,-1.2567,-1.2569,-1.256,-1.254,-1.2535,-1.2532,-1.252,-1.2516,-1.2504,-1.2501,-1.2489,-1.2478,-1.2469,-1.2454,-1.2455,-1.2472,-1.2442,-1.2441,-1.2449,-1.2481,-1.2491,-1.2494,-1.2462,-1.2463,-1.2463,-1.2483,0,-1.2615,-1.261,-1.2591,-1.2591,-1.2585,-1.2563,-1.256,-1.2548,-1.2535,-1.2528,-1.2514,-1.2506,-1.2491,-1.2486,-1.2486,-1.247,-1.2479,-1.2469,-1.246,-1.246,-1.2465,-1.2497,-1.2508,-1.2527,-1.2485,-1.2485,-1.2485,0,-1.2637,-1.2626,-1.2626,-1.2606,-1.2603,-1.2602,-1.2589,-1.2583,-1.2568,-1.2559,-1.255,-1.2534,-1.253,-1.2515,-1.251,-1.2504,-1.2499,-1.2491,-1.2491,-1.249,-1.2474,-1.2497,-1.2533,-1.2536,-1.2489,-1.2488,-1.2488,0,-1.2667,-1.2653,-1.2651,-1.2645,-1.2621,-1.2621,-1.2611,-1.2596,-1.259,-1.2579,-1.2575,-1.2564,-1.2558,-1.2549,-1.2531,-1.2522,-1.2528,-1.2511,-1.252,-1.252,-1.2522,-1.2522,-1.2558,-1.2519,-1.2519,-1.2519,-1.2519,0,-1.2691,-1.2691,-1.2664,-1.2663,-1.2663,-1.2642,-1.2643,-1.2631,-1.2618,-1.2614,-1.2593,-1.259,-1.2566,-1.256,-1.2545,-1.2543,-1.254,-1.2533,-1.2529,-1.2535,-1.2536,-1.2531,-1.253,-1.2519,-1.2519,-1.2519,-1.2519,0,-1.2724,-1.2706,-1.2703,-1.2681,-1.2676,-1.2677,-1.2659,-1.2657,-1.2643,-1.2639,-1.2637,-1.2615,-1.2607,-1.2588,-1.2574,-1.2564,-1.2567,-1.2559,-1.2572,-1.257,-1.2579,-1.2579,-1.2614,-1.2617,-1.2576,-1.2576,-1.2577,0,-1.2741,-1.2741,-1.272,-1.2716,-1.2708,-1.2702,-1.2696,-1.2675,-1.267,-1.2653,-1.2654,-1.2644,-1.2635,-1.2624,-1.2607,-1.2597,-1.2589,-1.2602,-1.2588,-1.2594,-1.259,-1.259,-1.2591,-1.2605,-1.2606,-1.2606,-1.2607,0,-1.2772,-1.2763,-1.2756,-1.2745,-1.2739,-1.273,-1.2719,-1.2717,-1.2694,-1.2689,-1.2681,-1.2674,-1.2661,-1.2653,-1.264,-1.263,-1.2615,-1.2612,-1.2613,-1.2619,-1.2627,-1.2623,-1.2581,-1.2611,-1.261,-1.261,-1.261,-1.261,-1.2798,-1.2797,-1.2783,-1.2775,-1.2765,-1.2756,-1.2754,-1.274,-1.2733,-1.2721,-1.2709,-1.2703,-1.2688,-1.267,-1.2661,-1.2656,-1.2648,-1.265,-1.265,-1.2651,-1.2654,-1.2628,-1.2653,-1.2653,-1.2653,-1.2653,-1.2653,0,-1.2828,-1.2818,-1.2811,-1.2798,-1.2792,-1.2779,-1.2767,-1.2763,-1.2757,-1.2745,-1.2738,-1.2729,-1.272,-1.2703,-1.2693,-1.2692,-1.2685,-1.269,-1.269,-1.2688,-1.2662,-1.2662,-1.2696,-1.2696,-1.2696,-1.2696,-1.2696,-1.2696,-1.2843,-1.2842,-1.2832,-1.2825,-1.2815,-1.2809,-1.2803,-1.2795,-1.2785,-1.2777,-1.277,-1.2759,-1.2745,-1.2734,-1.2725,-1.2721,-1.2718,-1.2726,-1.2719,-1.2694,-1.269,-1.2686,-1.2686,-1.2725,-1.2725,-1.2746,-1.2746,-1.2746]},{"header":{"parameterUnit":"m.s-1","parameterCategory":1,"la1":30.2991,"la2":30.254,"lo1":-89.0895,"lo2":-89.0444,"dy":0.0017,"dx":0.0017,"nx":28,"ny":28,"refTime":"2024-05-28T09:00:00:Z","depth":0,"parameterNumber":3,"parameterNumberName":"V-component_of_WINDS"},"data":[0,0,0,0,0,0,0,0,0,0,0,0,0,0,0,0,0,0,0,0,0,0,0,0,0,0,0,0,0,0,0,0,0,0,0,0,0,0,0,0,0,0,0,0,0,0,0,0,0,0,0,0,0,0,0,0,0,0,-0.1638,-0.1639,0,-0.1702,-0.1703,-0.1703,-0.172,-0.172,-0.172,-0.1719,-0.1784,-0.1786,-0.1788,0,0,0,0,0,0,0,0,0,0,0,0,0,-0.153,-0.1531,-0.1638,-0.1639,-0.164,-0.1702,-0.1703,-0.1704,-0.172,-0.172,-0.172,-0.1719,-0.1783,-0.1785,-0.1788,0,0,0,0,0,0,0,0,0,0,0,0,0,-0.1583,-0.1532,-0.1638,-0.1656,-0.1658,-0.1702,-0.1703,-0.1704,-0.1721,-0.172,-0.1719,-0.1719,-0.1782,-0.1785,-0.1788,-0.1819,0,0,-0.1798,-0.1799,0,0,0,0,0,0,0,0,-0.158,-0.1587,-0.1652,-0.1655,-0.1657,-0.1703,-0.1688,-0.1742,-0.1721,-0.1697,-0.1719,-0.1719,-0.1757,-0.1762,-0.1775,-0.1822,-0.1825,-0.1798,-0.18,-0.1801,-0.1802,0,0,0,0,0,0,0,-0.1577,-0.1585,-0.1663,-0.1653,-0.1656,-0.166,-0.1667,-0.1698,-0.1729,-0.1699,-0.17,-0.1708,-0.1758,-0.1772,-0.1777,-0.1826,-0.1798,-0.1801,-0.1803,-0.1804,-0.19,-0.19,0,0,0,0,0,0,-0.157,-0.1581,-0.1661,-0.1665,-0.1617,-0.1662,-0.167,-0.1689,-0.1729,-0.1735,-0.1708,-0.1708,-0.1767,-0.1773,-0.1779,-0.1818,-0.1801,-0.1804,-0.1806,-0.1899,-0.19,-0.1901,0,0,0,0,0,0,-0.1568,-0.1577,-0.1659,-0.1624,-0.1634,-0.1665,-0.1685,-0.169,-0.1704,-0.1736,-0.1741,-0.1717,-0.1767,-0.1775,-0.1809,-0.182,-0.1806,-0.1808,-0.1898,-0.1899,-0.19,-0.1895,0,0,0,0,0,0,-0.1564,-0.1576,-0.1588,-0.1624,-0.1636,-0.1688,-0.1686,-0.1692,-0.171,-0.171,-0.1746,-0.1751,-0.1767,-0.1804,-0.1812,-0.1824,-0.1811,-0.1897,-0.1899,-0.19,-0.1894,-0.1896,-0.1897,0,0,0,0,0,-0.156,-0.1584,-0.1589,-0.1598,-0.1652,-0.1688,-0.1695,-0.1714,-0.1711,-0.1723,-0.1743,-0.175,-0.1818,-0.1807,-0.1816,-0.183,-0.1897,-0.1898,-0.19,-0.1894,-0.1895,-0.1897,0,0,0,0,0,0,-0.1549,-0.1589,-0.1595,-0.1631,-0.1656,-0.1691,-0.1707,-0.1715,-0.1742,-0.1741,-0.1763,-0.1771,-0.1803,-0.182,-0.1808,-0.1861,-0.1857,-0.1861,-0.1849,-0.1851,-0.1853,-0.1848,-0.1813,0,0,0,0,0,-0.155,-0.1577,-0.161,-0.1639,-0.1651,-0.1677,-0.1693,-0.1705,-0.1732,-0.1743,-0.1766,-0.1791,-0.1818,-0.1835,-0.1862,-0.1896,-0.1904,-0.191,-0.1911,-0.1912,-0.1915,-0.1934,-0.1937,-0.1906,-0.1906,-0.1906,0,0,-0.1554,-0.1579,-0.1595,-0.1637,-0.1658,-0.1684,-0.1686,-0.1714,-0.1733,-0.1747,-0.1781,-0.1798,-0.1828,-0.1862,-0.1878,-0.1877,-0.1925,-0.1914,-0.1915,-0.1917,-0.1936,-0.1939,-0.1942,-0.1907,-0.1906,-0.1906,0,0,-0.1574,-0.1596,-0.1622,-0.1643,-0.1675,-0.1692,-0.1698,-0.1732,-0.1744,-0.1778,-0.1789,-0.1812,-0.1858,-0.1879,-0.1895,-0.1922,-0.193,-0.193,-0.1938,-0.1956,-0.1959,-0.1961,-0.1971,-0.1974,-0.1933,-0.1933,-0.1933,0,-0.1575,-0.1615,-0.1635,-0.1662,-0.168,-0.1694,-0.172,-0.1739,-0.1778,-0.179,-0.1788,-0.1846,-0.1867,-0.1906,-0.1912,-0.1925,-0.1933,-0.1927,-0.1957,-0.1959,-0.1962,-0.1971,-0.1975,-0.1933,-0.1933,-0.1933,-0.1933,0,-0.1615,-0.1642,-0.1659,-0.1697,-0.1717,-0.1743,-0.1766,-0.1784,-0.1794,-0.1811,-0.1845,-0.187,-0.1902,-0.1912,-0.1922,-0.1953,-0.1951,-0.1952,-0.1949,-0.1964,-0.1974,-0.1978,-0.1933,-0.1933,-0.1933,-0.1933,0,0,-0.163,-0.1677,-0.1683,-0.17,-0.1736,-0.1758,-0.1784,-0.1816,-0.1831,-0.1856,-0.1879,-0.1918,-0.1919,-0.1938,-0.195,-0.1966,-0.1986,-0.1966,-0.1967,-0.1969,-0.2022,-0.2021,-0.2025,-0.1991,-0.1992,-0.1992,-0.2019,0,-0.1655,-0.1705,-0.1722,-0.1763,-0.1789,-0.1801,-0.1825,-0.1849,-0.1865,-0.1889,-0.1906,-0.1933,-0.1933,-0.1944,-0.1961,-0.198,-0.1997,-0.1979,-0.2013,-0.2014,-0.2006,-0.203,-0.2029,-0.2053,-0.2023,-0.2024,-0.2024,0,-0.1692,-0.1718,-0.1761,-0.1793,-0.1805,-0.1826,-0.1856,-0.1878,-0.1905,-0.1916,-0.1937,-0.1948,-0.1976,-0.1969,-0.2008,-0.1995,-0.201,-0.2021,-0.2023,-0.2027,-0.202,-0.2035,-0.2062,-0.2065,-0.203,-0.203,-0.2029,0,-0.1699,-0.1746,-0.1778,-0.1792,-0.183,-0.1844,-0.186,-0.1887,-0.1905,-0.193,-0.1942,-0.1971,-0.1986,-0.2008,-0.2026,-0.202,-0.2064,-0.2059,-0.2073,-0.2073,-0.2083,-0.2082,-0.2112,-0.2091,-0.2091,-0.2091,-0.2091,0,-0.1726,-0.1752,-0.1782,-0.1801,-0.183,-0.185,-0.1878,-0.1895,-0.1919,-0.1941,-0.1953,-0.1975,-0.1997,-0.2021,-0.2035,-0.2065,-0.2072,-0.2081,-0.2085,-0.2081,-0.2079,-0.2091,-0.209,-0.2092,-0.2091,-0.2091,-0.2091,0,-0.174,-0.1761,-0.1797,-0.183,-0.1838,-0.1858,-0.1887,-0.1906,-0.1922,-0.1951,-0.1958,-0.1984,-0.2013,-0.2033,-0.2069,-0.2079,-0.2111,-0.2114,-0.2102,-0.2104,-0.2118,-0.2116,-0.2157,-0.2164,-0.2137,-0.2137,-0.2137,0,-0.1756,-0.1777,-0.1812,-0.1828,-0.1845,-0.1871,-0.1889,-0.1908,-0.1926,-0.1958,-0.1974,-0.2003,-0.2028,-0.2073,-0.2094,-0.2122,-0.2126,-0.2139,-0.2131,-0.2126,-0.2127,-0.2126,-0.2128,-0.214,-0.214,-0.2141,-0.2141,0,-0.1783,-0.1792,-0.1818,-0.1847,-0.1868,-0.1892,-0.1916,-0.1929,-0.1952,-0.1972,-0.2001,-0.2021,-0.2058,-0.2087,-0.2117,-0.2133,-0.2141,-0.2143,-0.2148,-0.2144,-0.2137,-0.2141,-0.2106,-0.2142,-0.2142,-0.2142,-0.2142,-0.2142,-0.1799,-0.1818,-0.1845,-0.1873,-0.1893,-0.1915,-0.1935,-0.1954,-0.1979,-0.2011,-0.2021,-0.2051,-0.2077,-0.2118,-0.2135,-0.2159,-0.2158,-0.2165,-0.2167,-0.2168,-0.2169,-0.2132,-0.2164,-0.2164,-0.2164,-0.2164,-0.2164,0,-0.1826,-0.1845,-0.1871,-0.1904,-0.1926,-0.1931,-0.1958,-0.1976,-0.2003,-0.2026,-0.205,-0.2084,-0.2112,-0.2135,-0.2164,-0.2179,-0.2183,-0.2186,-0.2185,-0.2189,-0.2167,-0.2161,-0.2182,-0.2182,-0.2182,-0.2182,-0.2182,-0.2182,-0.1844,-0.1875,-0.1888,-0.1929,-0.1947,-0.1978,-0.1993,-0.2013,-0.2032,-0.2069,-0.2092,-0.2107,-0.2131,-0.2161,-0.2187,-0.2193,-0.2203,-0.2205,-0.2212,-0.2192,-0.219,-0.2188,-0.2182,-0.2207,-0.2207,-0.2232,-0.2232,-0.2232]}]]